Year,Month,Day,Hour,Minute,Value (Times are PST for temperature in C)
2011,03,25,00,00,7.80
2011,03,25,00,01,7.90
2011,03,25,00,02,7.90
2011,03,25,00,03,7.90
2011,03,25,00,04,7.90
2011,03,25,00,05,7.90
2011,03,25,00,06,7.90
2011,03,25,00,07,7.90
2011,03,25,00,08,7.90
2011,03,25,00,09,7.90
2011,03,25,00,10,7.90
2011,03,25,00,11,7.90
2011,03,25,00,12,8.00
2011,03,25,00,13,8.00
2011,03,25,00,14,8.00
2011,03,25,00,15,8.00
2011,03,25,00,16,8.00
2011,03,25,00,17,8.00
2011,03,25,00,18,8.00
2011,03,25,00,19,8.00
2011,03,25,00,20,8.00
2011,03,25,00,21,8.00
2011,03,25,00,22,8.00
2011,03,25,00,23,8.00
2011,03,25,00,24,8.10
2011,03,25,00,25,8.10
2011,03,25,00,26,8.10
2011,03,25,00,27,8.10
2011,03,25,00,28,8.10
2011,03,25,00,29,8.10
2011,03,25,00,30,8.00
2011,03,25,00,31,8.00
2011,03,25,00,32,8.00
2011,03,25,00,33,8.00
2011,03,25,00,34,8.00
2011,03,25,00,35,8.00
2011,03,25,00,36,7.90
2011,03,25,00,37,7.90
2011,03,25,00,38,7.90
2011,03,25,00,39,7.90
2011,03,25,00,40,7.90
2011,03,25,00,41,7.90
2011,03,25,00,42,7.80
2011,03,25,00,43,7.80
2011,03,25,00,44,7.80
2011,03,25,00,45,7.80
2011,03,25,00,46,7.80
2011,03,25,00,47,7.80
2011,03,25,00,48,7.80
2011,03,25,00,49,7.80
2011,03,25,00,50,7.80
2011,03,25,00,51,7.80
2011,03,25,00,52,7.80
2011,03,25,00,53,7.80
2011,03,25,00,54,7.80
2011,03,25,00,55,7.70
2011,03,25,00,56,7.70
2011,03,25,00,57,7.70
2011,03,25,00,58,7.70
2011,03,25,00,59,7.70
2011,03,25,01,00,7.70
2011,03,25,01,01,7.70
2011,03,25,01,02,7.70
2011,03,25,01,03,7.60
2011,03,25,01,04,7.60
2011,03,25,01,05,7.60
2011,03,25,01,06,7.60
2011,03,25,01,07,7.50
2011,03,25,01,08,7.50
2011,03,25,01,09,7.50
2011,03,25,01,10,7.40
2011,03,25,01,11,7.40
2011,03,25,01,12,7.40
2011,03,25,01,13,7.40
2011,03,25,01,14,7.30
2011,03,25,01,15,7.30
2011,03,25,01,16,7.30
2011,03,25,01,17,7.30
2011,03,25,01,18,7.30
2011,03,25,01,19,7.30
2011,03,25,01,20,7.30
2011,03,25,01,21,7.30
2011,03,25,01,22,7.30
2011,03,25,01,23,7.30
2011,03,25,01,24,7.30
2011,03,25,01,25,7.30
2011,03,25,01,26,7.30
2011,03,25,01,27,7.30
2011,03,25,01,28,7.20
2011,03,25,01,29,7.20
2011,03,25,01,30,7.20
2011,03,25,01,31,7.20
2011,03,25,01,32,7.20
2011,03,25,01,33,7.20
2011,03,25,01,34,7.20
2011,03,25,01,35,7.20
2011,03,25,01,36,7.20
2011,03,25,01,37,7.20
2011,03,25,01,38,7.20
2011,03,25,01,39,7.20
2011,03,25,01,40,7.20
2011,03,25,01,41,7.20
2011,03,25,01,42,7.20
2011,03,25,01,43,7.20
2011,03,25,01,44,7.20
2011,03,25,01,45,7.20
2011,03,25,01,46,7.20
2011,03,25,01,47,7.20
2011,03,25,01,48,7.20
2011,03,25,01,49,7.20
2011,03,25,01,50,7.20
2011,03,25,01,51,7.20
2011,03,25,01,52,7.20
2011,03,25,01,53,7.20
2011,03,25,01,54,7.20
2011,03,25,01,55,7.10
2011,03,25,01,56,7.10
2011,03,25,01,57,7.10
2011,03,25,01,58,7.10
2011,03,25,01,59,7.10
2011,03,25,02,00,7.10
2011,03,25,02,01,7.00
2011,03,25,02,02,7.00
2011,03,25,02,03,7.00
2011,03,25,02,04,7.00
2011,03,25,02,05,7.00
2011,03,25,02,06,7.00
2011,03,25,02,07,7.00
2011,03,25,02,08,7.00
2011,03,25,02,09,7.00
2011,03,25,02,10,7.00
2011,03,25,02,11,7.00
2011,03,25,02,12,7.00
2011,03,25,02,13,7.00
2011,03,25,02,14,7.00
2011,03,25,02,15,7.00
2011,03,25,02,16,7.10
2011,03,25,02,17,7.10
2011,03,25,02,18,7.10
2011,03,25,02,19,7.10
2011,03,25,02,20,7.20
2011,03,25,02,21,7.20
2011,03,25,02,22,7.20
2011,03,25,02,23,7.20
2011,03,25,02,24,7.20
2011,03,25,02,25,7.20
2011,03,25,02,26,7.10
2011,03,25,02,27,7.10
2011,03,25,02,28,7.10
2011,03,25,02,29,7.00
2011,03,25,02,30,7.00
2011,03,25,02,31,7.00
2011,03,25,02,32,6.90
2011,03,25,02,33,6.90
2011,03,25,02,34,6.90
2011,03,25,02,35,6.90
2011,03,25,02,36,6.80
2011,03,25,02,37,6.80
2011,03,25,02,38,6.80
2011,03,25,02,39,6.70
2011,03,25,02,40,6.70
2011,03,25,02,41,6.70
2011,03,25,02,42,6.70
2011,03,25,02,43,6.70
2011,03,25,02,44,6.60
2011,03,25,02,45,6.60
2011,03,25,02,46,6.60
2011,03,25,02,47,6.60
2011,03,25,02,48,6.60
2011,03,25,02,49,6.50
2011,03,25,02,50,6.50
2011,03,25,02,51,6.50
2011,03,25,02,52,6.50
2011,03,25,02,53,6.40
2011,03,25,02,54,6.40
2011,03,25,02,55,6.40
2011,03,25,02,56,6.40
2011,03,25,02,57,6.40
2011,03,25,02,58,6.40
2011,03,25,02,59,6.40
2011,03,25,03,00,6.30
2011,03,25,03,01,6.30
2011,03,25,03,02,6.30
2011,03,25,03,03,6.30
2011,03,25,03,04,6.30
2011,03,25,03,05,6.30
2011,03,25,03,06,6.30
2011,03,25,03,07,6.30
2011,03,25,03,08,6.30
2011,03,25,03,09,6.30
2011,03,25,03,10,6.30
2011,03,25,03,11,6.30
2011,03,25,03,12,6.30
2011,03,25,03,13,6.30
2011,03,25,03,14,6.30
2011,03,25,03,15,6.30
2011,03,25,03,16,6.30
2011,03,25,03,17,6.30
2011,03,25,03,18,6.30
2011,03,25,03,19,6.30
2011,03,25,03,20,6.30
2011,03,25,03,21,6.30
2011,03,25,03,22,6.30
2011,03,25,03,23,6.30
2011,03,25,03,24,6.30
2011,03,25,03,25,6.30
2011,03,25,03,26,6.30
2011,03,25,03,27,6.30
2011,03,25,03,28,6.30
2011,03,25,03,29,6.30
2011,03,25,03,30,6.30
2011,03,25,03,31,6.30
2011,03,25,03,32,6.30
2011,03,25,03,33,6.30
2011,03,25,03,34,6.30
2011,03,25,03,35,6.30
2011,03,25,03,36,6.30
2011,03,25,03,37,6.30
2011,03,25,03,38,6.30
2011,03,25,03,39,6.30
2011,03,25,03,40,6.30
2011,03,25,03,41,6.20
2011,03,25,03,42,6.20
2011,03,25,03,43,6.20
2011,03,25,03,44,6.20
2011,03,25,03,45,6.20
2011,03,25,03,46,6.20
2011,03,25,03,47,6.20
2011,03,25,03,48,6.20
2011,03,25,03,49,6.20
2011,03,25,03,50,6.20
2011,03,25,03,51,6.20
2011,03,25,03,52,6.20
2011,03,25,03,53,6.20
2011,03,25,03,54,6.20
2011,03,25,03,55,6.20
2011,03,25,03,56,6.20
2011,03,25,03,57,6.20
2011,03,25,03,58,6.20
2011,03,25,03,59,6.10
2011,03,25,04,00,6.10
2011,03,25,04,01,6.10
2011,03,25,04,02,6.10
2011,03,25,04,03,6.10
2011,03,25,04,06,6.10
2011,03,25,04,07,6.10
2011,03,25,04,08,6.10
2011,03,25,04,09,6.10
2011,03,25,04,10,6.10
2011,03,25,04,11,6.10
2011,03,25,04,12,6.20
2011,03,25,04,13,6.20
2011,03,25,04,14,6.30
2011,03,25,04,15,6.30
2011,03,25,04,16,6.30
2011,03,25,04,17,6.40
2011,03,25,04,18,6.40
2011,03,25,04,19,6.40
2011,03,25,04,20,6.40
2011,03,25,04,21,6.40
2011,03,25,04,22,6.40
2011,03,25,04,23,6.30
2011,03,25,04,24,6.30
2011,03,25,04,25,6.30
2011,03,25,04,26,6.30
2011,03,25,04,27,6.30
2011,03,25,04,28,6.30
2011,03,25,04,29,6.30
2011,03,25,04,30,6.30
2011,03,25,04,31,6.30
2011,03,25,04,32,6.40
2011,03,25,04,33,6.30
2011,03,25,04,34,6.30
2011,03,25,04,35,6.30
2011,03,25,04,36,6.30
2011,03,25,04,37,6.30
2011,03,25,04,38,6.30
2011,03,25,04,39,6.30
2011,03,25,04,40,6.30
2011,03,25,04,41,6.30
2011,03,25,04,42,6.20
2011,03,25,04,43,6.20
2011,03,25,04,44,6.20
2011,03,25,04,45,6.20
2011,03,25,04,46,6.20
2011,03,25,04,47,6.10
2011,03,25,04,48,6.10
2011,03,25,04,49,6.10
2011,03,25,04,50,6.10
2011,03,25,04,51,6.00
2011,03,25,04,52,6.00
2011,03,25,04,53,5.90
2011,03,25,04,54,5.90
2011,03,25,04,55,5.90
2011,03,25,04,56,5.90
2011,03,25,04,57,5.80
2011,03,25,04,58,5.80
2011,03,25,04,59,5.80
2011,03,25,05,00,5.80
2011,03,25,05,01,5.70
2011,03,25,05,02,5.70
2011,03,25,05,03,5.70
2011,03,25,05,04,5.70
2011,03,25,05,05,5.70
2011,03,25,05,06,5.60
2011,03,25,05,07,5.60
2011,03,25,05,08,5.60
2011,03,25,05,09,5.60
2011,03,25,05,10,5.60
2011,03,25,05,11,5.60
2011,03,25,05,12,5.60
2011,03,25,05,13,5.60
2011,03,25,05,14,5.60
2011,03,25,05,15,5.60
2011,03,25,05,16,5.60
2011,03,25,05,17,5.60
2011,03,25,05,18,5.60
2011,03,25,05,19,5.60
2011,03,25,05,20,5.70
2011,03,25,05,21,5.70
2011,03,25,05,22,5.70
2011,03,25,05,23,5.70
2011,03,25,05,24,5.70
2011,03,25,05,25,5.70
2011,03,25,05,26,5.70
2011,03,25,05,27,5.80
2011,03,25,05,28,5.80
2011,03,25,05,29,5.80
2011,03,25,05,30,5.80
2011,03,25,05,31,5.80
2011,03,25,05,32,5.80
2011,03,25,05,33,5.80
2011,03,25,05,34,5.80
2011,03,25,05,35,5.80
2011,03,25,05,36,5.80
2011,03,25,05,37,5.80
2011,03,25,05,38,5.80
2011,03,25,05,39,5.80
2011,03,25,05,40,5.80
2011,03,25,05,41,5.80
2011,03,25,05,42,5.80
2011,03,25,05,43,5.80
2011,03,25,05,44,5.90
2011,03,25,05,45,5.90
2011,03,25,05,46,5.90
2011,03,25,05,47,5.90
2011,03,25,05,48,5.90
2011,03,25,05,49,5.90
2011,03,25,05,50,5.90
2011,03,25,05,51,5.90
2011,03,25,05,52,5.90
2011,03,25,05,53,5.90
2011,03,25,05,54,5.90
2011,03,25,05,55,5.90
2011,03,25,05,56,5.90
2011,03,25,05,57,5.80
2011,03,25,05,58,5.80
2011,03,25,05,59,5.80
2011,03,25,06,00,5.80
2011,03,25,06,01,5.80
2011,03,25,06,02,5.80
2011,03,25,06,03,5.80
2011,03,25,06,04,5.80
2011,03,25,06,05,5.80
2011,03,25,06,06,5.80
2011,03,25,06,07,5.80
2011,03,25,06,08,5.70
2011,03,25,06,09,5.70
2011,03,25,06,10,5.70
2011,03,25,06,11,5.70
2011,03,25,06,12,5.70
2011,03,25,06,13,5.70
2011,03,25,06,14,5.70
2011,03,25,06,15,5.70
2011,03,25,06,16,5.80
2011,03,25,06,17,5.80
2011,03,25,06,18,5.80
2011,03,25,06,19,5.80
2011,03,25,06,20,5.80
2011,03,25,06,21,5.80
2011,03,25,06,22,5.90
2011,03,25,06,23,5.90
2011,03,25,06,24,5.90
2011,03,25,06,25,5.90
2011,03,25,06,26,5.80
2011,03,25,06,27,5.80
2011,03,25,06,28,5.80
2011,03,25,06,29,5.80
2011,03,25,06,30,5.80
2011,03,25,06,31,5.80
2011,03,25,06,32,5.70
2011,03,25,06,33,5.70
2011,03,25,06,34,5.70
2011,03,25,06,35,5.70
2011,03,25,06,36,5.70
2011,03,25,06,37,5.70
2011,03,25,06,38,5.80
2011,03,25,06,39,5.80
2011,03,25,06,40,5.80
2011,03,25,06,41,5.80
2011,03,25,06,42,5.90
2011,03,25,06,43,5.90
2011,03,25,06,44,5.90
2011,03,25,06,45,5.90
2011,03,25,06,46,5.90
2011,03,25,06,47,5.90
2011,03,25,06,48,5.90
2011,03,25,06,49,5.90
2011,03,25,06,50,5.80
2011,03,25,06,51,5.80
2011,03,25,06,52,5.80
2011,03,25,06,53,5.80
2011,03,25,06,54,5.80
2011,03,25,06,55,5.80
2011,03,25,06,56,5.80
2011,03,25,06,57,5.70
2011,03,25,06,58,5.70
2011,03,25,06,59,5.70
2011,03,25,07,00,5.70
2011,03,25,07,01,5.70
2011,03,25,07,02,5.70
2011,03,25,07,03,5.70
2011,03,25,07,04,5.70
2011,03,25,07,05,5.70
2011,03,25,07,06,5.70
2011,03,25,07,07,5.70
2011,03,25,07,08,5.70
2011,03,25,07,09,5.70
2011,03,25,07,10,5.70
2011,03,25,07,11,5.70
2011,03,25,07,12,5.70
2011,03,25,07,13,5.80
2011,03,25,07,14,5.80
2011,03,25,07,15,5.80
2011,03,25,07,16,5.70
2011,03,25,07,17,5.70
2011,03,25,07,18,5.70
2011,03,25,07,19,5.70
2011,03,25,07,20,5.70
2011,03,25,07,21,5.70
2011,03,25,07,22,5.70
2011,03,25,07,23,5.60
2011,03,25,07,24,5.60
2011,03,25,07,25,5.60
2011,03,25,07,26,5.60
2011,03,25,07,27,5.60
2011,03,25,07,28,5.60
2011,03,25,07,29,5.60
2011,03,25,07,30,5.50
2011,03,25,07,31,5.50
2011,03,25,07,32,5.50
2011,03,25,07,33,5.50
2011,03,25,07,34,5.60
2011,03,25,07,35,5.60
2011,03,25,07,36,5.60
2011,03,25,07,37,5.60
2011,03,25,07,38,5.60
2011,03,25,07,39,5.60
2011,03,25,07,40,5.70
2011,03,25,07,41,5.70
2011,03,25,07,42,5.70
2011,03,25,07,43,5.70
2011,03,25,07,44,5.70
2011,03,25,07,45,5.70
2011,03,25,07,46,5.70
2011,03,25,07,47,5.70
2011,03,25,07,48,5.70
2011,03,25,07,49,5.70
2011,03,25,07,50,5.70
2011,03,25,07,51,5.70
2011,03,25,07,52,5.70
2011,03,25,07,53,5.70
2011,03,25,07,54,5.80
2011,03,25,07,55,5.80
2011,03,25,07,56,5.80
2011,03,25,07,57,5.80
2011,03,25,07,58,5.80
2011,03,25,07,59,5.90
2011,03,25,08,00,5.90
2011,03,25,08,01,5.90
2011,03,25,08,02,6.00
2011,03,25,08,03,6.00
2011,03,25,08,04,6.00
2011,03,25,08,05,6.10
2011,03,25,08,06,6.10
2011,03,25,08,07,6.10
2011,03,25,08,08,6.10
2011,03,25,08,09,6.10
2011,03,25,08,10,6.20
2011,03,25,08,11,6.20
2011,03,25,08,12,6.20
2011,03,25,08,13,6.20
2011,03,25,08,14,6.20
2011,03,25,08,15,6.30
2011,03,25,08,16,6.30
2011,03,25,08,17,6.30
2011,03,25,08,18,6.30
2011,03,25,08,19,6.30
2011,03,25,08,20,6.30
2011,03,25,08,21,6.40
2011,03,25,08,22,6.40
2011,03,25,08,23,6.40
2011,03,25,08,24,6.40
2011,03,25,08,25,6.40
2011,03,25,08,26,6.40
2011,03,25,08,27,6.40
2011,03,25,08,28,6.40
2011,03,25,08,29,6.40
2011,03,25,08,30,6.40
2011,03,25,08,31,6.40
2011,03,25,08,32,6.40
2011,03,25,08,33,6.40
2011,03,25,08,34,6.50
2011,03,25,08,35,6.50
2011,03,25,08,36,6.50
2011,03,25,08,37,6.50
2011,03,25,08,38,6.50
2011,03,25,08,39,6.50
2011,03,25,08,40,6.50
2011,03,25,08,41,6.60
2011,03,25,08,42,6.60
2011,03,25,08,43,6.60
2011,03,25,08,44,6.60
2011,03,25,08,45,6.60
2011,03,25,08,46,6.60
2011,03,25,08,47,6.60
2011,03,25,08,48,6.60
2011,03,25,08,49,6.60
2011,03,25,08,50,6.70
2011,03,25,08,51,6.70
2011,03,25,08,52,6.70
2011,03,25,08,53,6.70
2011,03,25,08,54,6.70
2011,03,25,08,55,6.70
2011,03,25,08,56,6.80
2011,03,25,08,57,6.80
2011,03,25,08,58,6.80
2011,03,25,08,59,6.80
2011,03,25,09,00,6.80
2011,03,25,09,01,6.80
2011,03,25,09,02,6.80
2011,03,25,09,03,6.80
2011,03,25,09,04,6.80
2011,03,25,09,05,6.80
2011,03,25,09,06,6.90
2011,03,25,09,07,6.90
2011,03,25,09,08,6.90
2011,03,25,09,09,6.90
2011,03,25,09,10,6.90
2011,03,25,09,11,6.90
2011,03,25,09,12,6.90
2011,03,25,09,13,6.90
2011,03,25,09,14,6.90
2011,03,25,09,15,7.00
2011,03,25,09,16,6.90
2011,03,25,09,17,6.90
2011,03,25,09,18,6.90
2011,03,25,09,19,6.90
2011,03,25,09,20,6.90
2011,03,25,09,21,6.90
2011,03,25,09,22,6.90
2011,03,25,09,23,6.90
2011,03,25,09,24,6.90
2011,03,25,09,25,6.90
2011,03,25,09,26,6.80
2011,03,25,09,27,6.80
2011,03,25,09,28,6.80
2011,03,25,09,29,6.80
2011,03,25,09,30,6.80
2011,03,25,09,31,6.80
2011,03,25,09,32,6.80
2011,03,25,09,33,6.80
2011,03,25,09,34,6.80
2011,03,25,09,35,6.80
2011,03,25,09,36,6.80
2011,03,25,09,37,6.80
2011,03,25,09,38,6.80
2011,03,25,09,39,6.80
2011,03,25,09,40,6.80
2011,03,25,09,41,6.80
2011,03,25,09,42,6.80
2011,03,25,09,43,6.80
2011,03,25,09,44,6.80
2011,03,25,09,45,6.80
2011,03,25,09,46,6.80
2011,03,25,09,47,6.80
2011,03,25,09,48,6.80
2011,03,25,09,49,6.80
2011,03,25,09,50,6.80
2011,03,25,09,51,6.80
2011,03,25,09,52,6.80
2011,03,25,09,53,6.80
2011,03,25,09,54,6.80
2011,03,25,09,55,6.80
2011,03,25,09,56,6.80
2011,03,25,09,57,6.80
2011,03,25,09,58,6.80
2011,03,25,09,59,6.80
2011,03,25,10,00,6.90
2011,03,25,10,01,6.90
2011,03,25,10,02,6.90
2011,03,25,10,03,6.90
2011,03,25,10,04,6.90
2011,03,25,10,05,6.90
2011,03,25,10,06,6.80
2011,03,25,10,07,6.80
2011,03,25,10,08,6.80
2011,03,25,10,09,6.80
2011,03,25,10,10,6.80
2011,03,25,10,11,6.80
2011,03,25,10,12,6.80
2011,03,25,10,13,6.80
2011,03,25,10,14,6.80
2011,03,25,10,15,6.80
2011,03,25,10,16,6.80
2011,03,25,10,17,6.80
2011,03,25,10,18,6.80
2011,03,25,10,19,6.80
2011,03,25,10,20,6.80
2011,03,25,10,21,6.80
2011,03,25,10,22,6.80
2011,03,25,10,23,6.80
2011,03,25,10,24,6.80
2011,03,25,10,25,6.80
2011,03,25,10,26,6.80
2011,03,25,10,27,6.80
2011,03,25,10,28,6.80
2011,03,25,10,29,6.80
2011,03,25,10,30,6.80
2011,03,25,10,31,6.80
2011,03,25,10,32,6.80
2011,03,25,10,33,6.80
2011,03,25,10,34,6.90
2011,03,25,10,35,6.90
2011,03,25,10,36,6.90
2011,03,25,10,37,6.90
2011,03,25,10,38,6.90
2011,03,25,10,39,6.90
2011,03,25,10,40,7.00
2011,03,25,10,41,7.00
2011,03,25,10,42,7.00
2011,03,25,10,43,7.00
2011,03,25,10,44,7.00
2011,03,25,10,45,7.00
2011,03,25,10,46,7.00
2011,03,25,10,47,7.00
2011,03,25,10,48,7.00
2011,03,25,10,49,7.00
2011,03,25,10,50,7.00
2011,03,25,10,51,7.00
2011,03,25,10,52,7.10
2011,03,25,10,53,7.10
2011,03,25,10,54,7.10
2011,03,25,10,55,7.10
2011,03,25,10,56,7.10
2011,03,25,10,57,7.10
2011,03,25,10,58,7.10
2011,03,25,10,59,7.10
2011,03,25,11,00,7.10
2011,03,25,11,01,7.20
2011,03,25,11,02,7.20
2011,03,25,11,03,7.20
2011,03,25,11,04,7.20
2011,03,25,11,05,7.20
2011,03,25,11,06,7.20
2011,03,25,11,07,7.20
2011,03,25,11,08,7.20
2011,03,25,11,09,7.20
2011,03,25,11,10,7.20
2011,03,25,11,11,7.20
2011,03,25,11,12,7.20
2011,03,25,11,13,7.20
2011,03,25,11,14,7.20
2011,03,25,11,15,7.20
2011,03,25,11,16,7.20
2011,03,25,11,17,7.20
2011,03,25,11,18,7.20
2011,03,25,11,19,7.10
2011,03,25,11,20,7.10
2011,03,25,11,21,7.10
2011,03,25,11,22,7.10
2011,03,25,11,23,7.10
2011,03,25,11,24,7.00
2011,03,25,11,25,7.00
2011,03,25,11,26,7.00
2011,03,25,11,27,7.10
2011,03,25,11,28,7.00
2011,03,25,11,29,7.00
2011,03,25,11,30,7.10
2011,03,25,11,31,7.10
2011,03,25,11,32,7.10
2011,03,25,11,33,7.10
2011,03,25,11,34,7.00
2011,03,25,11,35,7.00
2011,03,25,11,36,7.00
2011,03,25,11,37,6.90
2011,03,25,11,38,6.80
2011,03,25,11,39,6.70
2011,03,25,11,40,6.70
2011,03,25,11,41,6.60
2011,03,25,11,42,6.60
2011,03,25,11,43,6.50
2011,03,25,11,44,6.50
2011,03,25,11,45,6.40
2011,03,25,11,46,6.40
2011,03,25,11,47,6.30
2011,03,25,11,48,6.30
2011,03,25,11,49,6.20
2011,03,25,11,50,6.20
2011,03,25,11,51,6.10
2011,03,25,11,52,6.10
2011,03,25,11,53,6.00
2011,03,25,11,54,5.90
2011,03,25,11,55,5.90
2011,03,25,11,56,5.90
2011,03,25,11,57,5.80
2011,03,25,11,58,5.80
2011,03,25,11,59,5.80
2011,03,25,12,00,5.70
2011,03,25,12,01,5.70
2011,03,25,12,02,5.70
2011,03,25,12,03,5.70
2011,03,25,12,04,5.70
2011,03,25,12,05,5.70
2011,03,25,12,06,5.70
2011,03,25,12,07,5.70
2011,03,25,12,08,5.60
2011,03,25,12,09,5.70
2011,03,25,12,10,5.60
2011,03,25,12,11,5.60
2011,03,25,12,12,5.60
2011,03,25,12,13,5.50
2011,03,25,12,14,5.50
2011,03,25,12,15,5.40
2011,03,25,12,16,5.40
2011,03,25,12,17,5.40
2011,03,25,12,18,5.40
2011,03,25,12,19,5.40
2011,03,25,12,20,5.30
2011,03,25,12,21,5.30
2011,03,25,12,22,5.20
2011,03,25,12,23,5.20
2011,03,25,12,24,5.20
2011,03,25,12,25,5.20
2011,03,25,12,26,5.20
2011,03,25,12,27,5.10
2011,03,25,12,28,5.10
2011,03,25,12,29,5.10
2011,03,25,12,30,5.10
2011,03,25,12,31,5.20
2011,03,25,12,32,5.10
2011,03,25,12,33,5.10
2011,03,25,12,34,5.10
2011,03,25,12,35,5.10
2011,03,25,12,36,5.10
2011,03,25,12,37,5.00
2011,03,25,12,38,5.00
2011,03,25,12,39,5.00
2011,03,25,12,40,5.00
2011,03,25,12,41,5.00
2011,03,25,12,42,5.00
2011,03,25,12,43,5.00
2011,03,25,12,44,4.90
2011,03,25,12,45,4.90
2011,03,25,12,46,4.90
2011,03,25,12,47,4.90
2011,03,25,12,48,4.90
2011,03,25,12,49,4.90
2011,03,25,12,50,4.90
2011,03,25,12,51,4.90
2011,03,25,12,52,4.90
2011,03,25,12,53,4.90
2011,03,25,12,54,4.90
2011,03,25,12,55,4.90
2011,03,25,12,56,4.90
2011,03,25,12,57,4.90
2011,03,25,12,58,4.80
2011,03,25,12,59,4.80
2011,03,25,13,00,4.80
2011,03,25,13,01,4.80
2011,03,25,13,02,4.80
2011,03,25,13,03,4.80
2011,03,25,13,04,4.80
2011,03,25,13,05,4.80
2011,03,25,13,06,4.80
2011,03,25,13,07,4.80
2011,03,25,13,08,4.80
2011,03,25,13,09,4.80
2011,03,25,13,10,4.80
2011,03,25,13,11,4.80
2011,03,25,13,12,4.80
2011,03,25,13,13,4.80
2011,03,25,13,14,4.90
2011,03,25,13,15,4.90
2011,03,25,13,16,4.80
2011,03,25,13,17,4.90
2011,03,25,13,18,4.90
2011,03,25,13,19,4.90
2011,03,25,13,20,4.90
2011,03,25,13,21,4.90
2011,03,25,13,22,4.90
2011,03,25,13,23,4.90
2011,03,25,13,24,5.00
2011,03,25,13,25,5.00
2011,03,25,13,26,5.10
2011,03,25,13,27,5.10
2011,03,25,13,28,5.10
2011,03,25,13,29,5.10
2011,03,25,13,30,5.10
2011,03,25,13,31,5.10
2011,03,25,13,32,5.10
2011,03,25,13,33,5.10
2011,03,25,13,34,5.10
2011,03,25,13,35,5.20
2011,03,25,13,36,5.20
2011,03,25,13,37,5.30
2011,03,25,13,38,5.30
2011,03,25,13,39,5.20
2011,03,25,13,40,5.20
2011,03,25,13,41,5.30
2011,03,25,13,42,5.30
2011,03,25,13,43,5.30
2011,03,25,13,44,5.40
2011,03,25,13,45,5.40
2011,03,25,13,46,5.40
2011,03,25,13,47,5.40
2011,03,25,13,48,5.40
2011,03,25,13,49,5.40
2011,03,25,13,50,5.30
2011,03,25,13,51,5.30
2011,03,25,13,52,5.30
2011,03,25,13,53,5.30
2011,03,25,13,54,5.40
2011,03,25,13,55,5.40
2011,03,25,13,56,5.40
2011,03,25,13,57,5.40
2011,03,25,13,58,5.40
2011,03,25,13,59,5.30
2011,03,25,14,00,5.30
2011,03,25,14,01,5.30
2011,03,25,14,02,5.20
2011,03,25,14,03,5.20
2011,03,25,14,04,5.30
2011,03,25,14,05,5.30
2011,03,25,14,06,5.30
2011,03,25,14,07,5.30
2011,03,25,14,08,5.30
2011,03,25,14,09,5.30
2011,03,25,14,10,5.20
2011,03,25,14,11,5.20
2011,03,25,14,12,5.20
2011,03,25,14,13,5.20
2011,03,25,14,14,5.20
2011,03,25,14,15,5.20
2011,03,25,14,16,5.20
2011,03,25,14,17,5.20
2011,03,25,14,18,5.10
2011,03,25,14,19,5.10
2011,03,25,14,20,5.10
2011,03,25,14,21,5.20
2011,03,25,14,22,5.20
2011,03,25,14,23,5.20
2011,03,25,14,24,5.20
2011,03,25,14,25,5.20
2011,03,25,14,26,5.20
2011,03,25,14,27,5.20
2011,03,25,14,28,5.20
2011,03,25,14,29,5.20
2011,03,25,14,30,5.20
2011,03,25,14,31,5.20
2011,03,25,14,32,5.20
2011,03,25,14,33,5.20
2011,03,25,14,34,5.20
2011,03,25,14,35,5.20
2011,03,25,14,36,5.20
2011,03,25,14,37,5.20
2011,03,25,14,38,5.20
2011,03,25,14,39,5.20
2011,03,25,14,40,5.10
2011,03,25,14,41,5.10
2011,03,25,14,42,5.10
2011,03,25,14,43,5.10
2011,03,25,14,44,5.10
2011,03,25,14,45,5.10
2011,03,25,14,46,5.10
2011,03,25,14,47,5.10
2011,03,25,14,48,5.10
2011,03,25,14,49,5.10
2011,03,25,14,50,5.10
2011,03,25,14,51,5.10
2011,03,25,14,52,5.10
2011,03,25,14,53,5.10
2011,03,25,14,54,5.10
2011,03,25,14,55,5.10
2011,03,25,14,56,5.20
2011,03,25,14,57,5.20
2011,03,25,14,58,5.20
2011,03,25,14,59,5.20
2011,03,25,15,00,5.20
2011,03,25,15,01,5.20
2011,03,25,15,02,5.10
2011,03,25,15,03,5.20
2011,03,25,15,04,5.20
2011,03,25,15,05,5.20
2011,03,25,15,06,5.20
2011,03,25,15,07,5.20
2011,03,25,15,08,5.20
2011,03,25,15,09,5.10
2011,03,25,15,10,5.10
2011,03,25,15,11,5.10
2011,03,25,15,12,5.20
2011,03,25,15,13,5.20
2011,03,25,15,14,5.20
2011,03,25,15,15,5.20
2011,03,25,15,16,5.20
2011,03,25,15,17,5.20
2011,03,25,15,18,5.20
2011,03,25,15,19,5.20
2011,03,25,15,20,5.20
2011,03,25,15,21,5.20
2011,03,25,15,22,5.20
2011,03,25,15,23,5.20
2011,03,25,15,24,5.20
2011,03,25,15,25,5.20
2011,03,25,15,26,5.20
2011,03,25,15,27,5.20
2011,03,25,15,28,5.20
2011,03,25,15,29,5.20
2011,03,25,15,30,5.20
2011,03,25,15,31,5.20
2011,03,25,15,32,5.20
2011,03,25,15,33,5.20
2011,03,25,15,34,5.20
2011,03,25,15,35,5.20
2011,03,25,15,36,5.20
2011,03,25,15,37,5.20
2011,03,25,15,38,5.20
2011,03,25,15,39,5.20
2011,03,25,15,40,5.20
2011,03,25,15,41,5.20
2011,03,25,15,42,5.20
2011,03,25,15,43,5.20
2011,03,25,15,44,5.20
2011,03,25,15,45,5.20
2011,03,25,15,46,5.20
2011,03,25,15,47,5.20
2011,03,25,15,48,5.20
2011,03,25,15,49,5.20
2011,03,25,15,50,5.20
2011,03,25,15,51,5.20
2011,03,25,15,52,5.20
2011,03,25,15,53,5.20
2011,03,25,15,54,5.20
2011,03,25,15,55,5.20
2011,03,25,15,56,5.20
2011,03,25,15,57,5.30
2011,03,25,15,58,5.30
2011,03,25,15,59,5.30
2011,03,25,16,00,5.30
2011,03,25,16,01,5.30
2011,03,25,16,02,5.30
2011,03,25,16,03,5.30
2011,03,25,16,04,5.30
2011,03,25,16,05,5.40
2011,03,25,16,06,5.40
2011,03,25,16,07,5.40
2011,03,25,16,08,5.40
2011,03,25,16,09,5.40
2011,03,25,16,10,5.40
2011,03,25,16,11,5.40
2011,03,25,16,12,5.40
2011,03,25,16,13,5.40
2011,03,25,16,14,5.40
2011,03,25,16,15,5.40
2011,03,25,16,16,5.40
2011,03,25,16,17,5.40
2011,03,25,16,18,5.50
2011,03,25,16,19,5.50
2011,03,25,16,20,5.50
2011,03,25,16,21,5.50
2011,03,25,16,22,5.50
2011,03,25,16,23,5.50
2011,03,25,16,24,5.50
2011,03,25,16,25,5.50
2011,03,25,16,26,5.60
2011,03,25,16,27,5.60
2011,03,25,16,28,5.60
2011,03,25,16,29,5.60
2011,03,25,16,30,5.60
2011,03,25,16,31,5.60
2011,03,25,16,32,5.50
2011,03,25,16,33,5.50
2011,03,25,16,34,5.50
2011,03,25,16,35,5.50
2011,03,25,16,36,5.50
2011,03,25,16,37,5.50
2011,03,25,16,38,5.50
2011,03,25,16,39,5.50
2011,03,25,16,40,5.50
2011,03,25,16,41,5.60
2011,03,25,16,42,5.60
2011,03,25,16,43,5.60
2011,03,25,16,44,5.50
2011,03,25,16,45,5.50
2011,03,25,16,46,5.50
2011,03,25,16,47,5.50
2011,03,25,16,48,5.40
2011,03,25,16,49,5.40
2011,03,25,16,50,5.40
2011,03,25,16,51,5.40
2011,03,25,16,52,5.40
2011,03,25,16,53,5.40
2011,03,25,16,54,5.40
2011,03,25,16,55,5.40
2011,03,25,16,56,5.40
2011,03,25,16,57,5.30
2011,03,25,16,58,5.30
2011,03,25,16,59,5.30
2011,03,25,17,00,5.30
2011,03,25,17,01,5.30
2011,03,25,17,02,5.30
2011,03,25,17,03,5.30
2011,03,25,17,04,5.40
2011,03,25,17,05,5.40
2011,03,25,17,06,5.40
2011,03,25,17,07,5.40
2011,03,25,17,08,5.40
2011,03,25,17,09,5.40
2011,03,25,17,10,5.40
2011,03,25,17,11,5.40
2011,03,25,17,12,5.40
2011,03,25,17,13,5.40
2011,03,25,17,14,5.40
2011,03,25,17,15,5.40
2011,03,25,17,16,5.40
2011,03,25,17,17,5.40
2011,03,25,17,18,5.40
2011,03,25,17,19,5.40
2011,03,25,17,20,5.40
2011,03,25,17,21,5.40
2011,03,25,17,22,5.40
2011,03,25,17,23,5.40
2011,03,25,17,24,5.40
2011,03,25,17,25,5.40
2011,03,25,17,26,5.40
2011,03,25,17,27,5.40
2011,03,25,17,28,5.40
2011,03,25,17,29,5.40
2011,03,25,17,30,5.40
2011,03,25,17,31,5.40
2011,03,25,17,32,5.40
2011,03,25,17,33,5.40
2011,03,25,17,34,5.40
2011,03,25,17,35,5.40
2011,03,25,17,36,5.40
2011,03,25,17,37,5.40
2011,03,25,17,38,5.40
2011,03,25,17,39,5.40
2011,03,25,17,40,5.40
2011,03,25,17,41,5.40
2011,03,25,17,42,5.40
2011,03,25,17,43,5.40
2011,03,25,17,44,5.40
2011,03,25,17,45,5.40
2011,03,25,17,46,5.40
2011,03,25,17,47,5.40
2011,03,25,17,48,5.40
2011,03,25,17,49,5.40
2011,03,25,17,50,5.50
2011,03,25,17,51,5.50
2011,03,25,17,52,5.50
2011,03,25,17,53,5.50
2011,03,25,17,54,5.50
2011,03,25,17,55,5.50
2011,03,25,17,56,5.50
2011,03,25,17,57,5.50
2011,03,25,17,58,5.60
2011,03,25,17,59,5.60
2011,03,25,18,00,5.60
2011,03,25,18,01,5.50
2011,03,25,18,02,5.50
2011,03,25,18,03,5.50
2011,03,25,18,04,5.50
2011,03,25,18,05,5.50
2011,03,25,18,06,5.50
2011,03,25,18,07,5.50
2011,03,25,18,08,5.50